Location: Huberhof
(49.2050°N, 7.4980°E)
Time: 01:16:50
(UTC+00:00)

Cosmos 1825 - Pass Details

Date: 29 October 2020
Orbit: 502 x 508 km, 82.5° (Epoch: 26 November)

Event Time Altitude Azimuth Distance (km) Brightness Sun altitude
Rises 17:09:18 0° 2° (N) 2,627 5.7 -9.7°
Reaches altitude 10° 17:11:52 10° 19° (NNE) 1,734 4.6 -10.1°
Maximum altitude 17:14:45 20° 69° (ENE) 1,215 3.5 -10.5°
Enters shadow 17:17:17 12° 115° (ESE) 1,627 4.2 -11.0°
